GAF624 EHEH-EDDS

Flight info

Callsign GAF624
Flight time 0h 45m
Altitude 23000
Route LNO Z283 RITAX M624 DIK M150 KRH KRH1E
Aircraft A321/M-SDE3FGHIRWY/LB1

Departure

Time 2026-05-04 17:18
Airport Eindhoven Airport (EHEH)

Arrival

Time 2026-05-04 18:03
Airport Stuttgart Airport (EDDS)
Time Latitude Longitude Altitude Speed Heading
2026-05-04 16:51 51.45231 5.38356 82 ft 0 kts 125°
2026-05-04 17:05 51.45240 5.38337 89 ft 3 kts 119°
2026-05-04 17:06 51.45245 5.38285 71 ft 2 kts 73°
2026-05-04 17:06 51.45240 5.38263 72 ft 0 kts 49°
2026-05-04 17:11 51.45260 5.38283 74 ft 7 kts 30°
2026-05-04 17:11 51.45299 5.38323 76 ft 7 kts 35°
2026-05-04 17:11 51.45387 5.38405 69 ft 7 kts
2026-05-04 17:12 51.45416 5.38376 70 ft 5 kts 317°
2026-05-04 17:12 51.45459 5.38291 64 ft 6 kts 307°
2026-05-04 17:13 51.45554 5.38065 84 ft 6 kts 304°
2026-05-04 17:14 51.45656 5.37901 82 ft 6 kts 11°
2026-05-04 17:14 51.45730 5.37978 72 ft 17 kts 35°
2026-05-04 17:14 51.45944 5.38215 76 ft 17 kts 35°
2026-05-04 17:15 51.46036 5.38318 71 ft 16 kts 35°
2026-05-04 17:15 51.46170 5.38508 83 ft 6 kts 90°
2026-05-04 17:16 51.46165 5.38539 80 ft 0 kts 121°
2026-05-04 17:16 51.46158 5.38558 81 ft 6 kts 121°
2026-05-04 17:17 51.46110 5.38645 82 ft 11 kts 156°
2026-05-04 17:17 51.45952 5.38499 71 ft 18 kts 215°
2026-05-04 17:18 51.45644 5.38156 74 ft 88 kts 215°
2026-05-04 17:18 51.44018 5.36350 695 ft 175 kts 213°
2026-05-04 17:19 51.41942 5.34050 2403 ft 197 kts 215°
2026-05-04 17:19 51.39371 5.31741 3764 ft 224 kts 193°
2026-05-04 17:20 51.36305 5.32714 5719 ft 239 kts 146°
2026-05-04 17:20 51.34623 5.37412 7189 ft 264 kts 94°
2026-05-04 17:20 51.34872 5.40341 7983 ft 270 kts 77°
2026-05-04 17:21 51.35751 5.46252 9631 ft 276 kts 78°
2026-05-04 17:21 51.36632 5.52346 11142 ft 283 kts 78°
2026-05-04 17:22 51.36840 5.55485 11815 ft 285 kts 94°
2026-05-04 17:22 51.36792 5.58668 12552 ft 288 kts 93°
2026-05-04 17:23 51.34559 5.67330 14243 ft 300 kts 145°
2026-05-04 17:23 51.32780 5.69285 14376 ft 321 kts 149°
2026-05-04 17:23 51.28853 5.73364 15097 ft 345 kts 150°
2026-05-04 17:24 51.26837 5.75453 15730 ft 347 kts 150°
2026-05-04 17:24 51.20707 5.81848 17719 ft 354 kts 150°
2026-05-04 17:25 51.18542 5.83680 18320 ft 352 kts 164°
2026-05-04 17:25 51.14561 5.84127 19181 ft 348 kts 190°
2026-05-04 17:26 51.09751 5.82981 20298 ft 351 kts 190°
2026-05-04 17:26 51.02397 5.81213 22036 ft 358 kts 190°
2026-05-04 17:27 50.97430 5.80050 22933 ft 363 kts 190°
2026-05-04 17:27 50.92405 5.78887 22977 ft 375 kts 190°
2026-05-04 17:28 50.87010 5.77620 22974 ft 407 kts 190°
2026-05-04 17:29 50.78260 5.75574 22975 ft 435 kts 190°
2026-05-04 17:29 50.69243 5.73491 22982 ft 437 kts 190°
2026-05-04 17:30 50.60218 5.71445 22974 ft 438 kts 187°
2026-05-04 17:31 50.54121 5.71867 22973 ft 441 kts 175°
2026-05-04 17:31 50.44973 5.73645 22973 ft 441 kts 175°
2026-05-04 17:32 50.38886 5.74807 22977 ft 440 kts 176°
2026-05-04 17:33 50.29765 5.76542 22981 ft 440 kts 175°
2026-05-04 17:33 50.26727 5.77118 22977 ft 440 kts 176°
2026-05-04 17:34 50.17578 5.78845 22973 ft 439 kts 176°
2026-05-04 17:34 50.14543 5.79418 22976 ft 439 kts 176°
2026-05-04 17:35 50.05883 5.84115 22974 ft 452 kts 149°
2026-05-04 17:35 50.01148 5.90652 22975 ft 457 kts 140°
2026-05-04 17:35 49.98861 5.94078 22968 ft 457 kts 140°
2026-05-04 17:36 49.96571 5.97493 22976 ft 456 kts 140°
2026-05-04 17:36 49.94276 6.00903 22968 ft 456 kts 140°
2026-05-04 17:36 49.91983 6.04304 22977 ft 456 kts 140°
2026-05-04 17:36 49.89689 6.07704 22973 ft 456 kts 140°
2026-05-04 17:37 49.87438 6.11178 22973 ft 459 kts 135°
2026-05-04 17:37 49.85492 6.15125 22967 ft 464 kts 127°
2026-05-04 17:37 49.83912 6.19500 22964 ft 467 kts 121°
2026-05-04 17:37 49.82407 6.23971 22954 ft 467 kts 121°
2026-05-04 17:38 49.80901 6.28425 22958 ft 467 kts 121°
2026-05-04 17:38 49.79387 6.32881 22952 ft 467 kts 122°
2026-05-04 17:38 49.77869 6.37333 22953 ft 467 kts 122°
2026-05-04 17:38 49.76352 6.41767 22947 ft 468 kts 122°
2026-05-04 17:39 49.73277 6.50712 22946 ft 468 kts 122°
2026-05-04 17:39 49.71751 6.55148 22949 ft 468 kts 122°
2026-05-04 17:39 49.70225 6.59588 22946 ft 468 kts 122°
2026-05-04 17:40 49.68699 6.64034 22948 ft 468 kts 121°
2026-05-04 17:40 49.67177 6.68470 22954 ft 468 kts 121°
2026-05-04 17:40 49.65649 6.72917 22952 ft 468 kts 122°
2026-05-04 17:40 49.64123 6.77351 22955 ft 469 kts 122°
2026-05-04 17:41 49.62591 6.81787 22958 ft 469 kts 122°
2026-05-04 17:41 49.61055 6.86214 22957 ft 468 kts 122°
2026-05-04 17:41 49.59513 6.90652 22958 ft 468 kts 122°
2026-05-04 17:41 49.57979 6.95066 22960 ft 468 kts 122°
2026-05-04 17:42 49.56439 6.99493 22966 ft 468 kts 122°
2026-05-04 17:42 49.54900 7.03907 22967 ft 468 kts 122°
2026-05-04 17:42 49.53359 7.08321 22973 ft 468 kts 122°
2026-05-04 17:42 49.51820 7.12727 22974 ft 468 kts 122°
2026-05-04 17:43 49.50276 7.17142 22971 ft 468 kts 122°
2026-05-04 17:43 49.48734 7.21544 22901 ft 470 kts 122°
2026-05-04 17:43 49.47180 7.25967 22617 ft 469 kts 122°
2026-05-04 17:43 49.45622 7.30394 22226 ft 462 kts 122°
2026-05-04 17:44 49.44105 7.34697 21002 ft 454 kts 122°
2026-05-04 17:44 49.42598 7.38959 20011 ft 453 kts 122°
2026-05-04 17:44 49.41098 7.43178 19127 ft 448 kts 122°
2026-05-04 17:44 49.39609 7.47358 18258 ft 444 kts 122°
2026-05-04 17:45 49.38136 7.51496 17287 ft 439 kts 121°
2026-05-04 17:45 49.36679 7.55588 16398 ft 434 kts 121°
2026-05-04 17:45 49.35244 7.59619 15557 ft 428 kts 121°
2026-05-04 17:45 49.33828 7.63598 14743 ft 422 kts 121°
2026-05-04 17:46 49.32427 7.67523 13957 ft 417 kts 122°
2026-05-04 17:46 49.31040 7.71401 13110 ft 412 kts 121°
2026-05-04 17:46 49.29670 7.75221 12294 ft 406 kts 122°
2026-05-04 17:46 49.28318 7.78980 11501 ft 401 kts 122°
2026-05-04 17:47 49.26978 7.82699 11122 ft 398 kts 122°
2026-05-04 17:47 49.25672 7.86325 10962 ft 378 kts 122°
2026-05-04 17:47 49.24447 7.89747 10981 ft 357 kts 122°
2026-05-04 17:47 49.23258 7.93053 10994 ft 354 kts 122°
2026-05-04 17:48 49.22070 7.96337 10988 ft 352 kts 122°
2026-05-04 17:48 49.20882 7.99611 10994 ft 352 kts 122°
2026-05-04 17:48 49.19692 8.02886 11005 ft 352 kts 122°
2026-05-04 17:48 49.18495 8.06175 11006 ft 362 kts 122°
2026-05-04 17:49 49.17283 8.09498 10983 ft 355 kts 122°
2026-05-04 17:49 49.16118 8.12704 10986 ft 335 kts 122°
2026-05-04 17:49 49.15026 8.15714 11000 ft 314 kts 122°
2026-05-04 17:49 49.13996 8.18548 10998 ft 297 kts 122°
2026-05-04 17:50 49.12996 8.21283 10954 ft 295 kts 123°
2026-05-04 17:50 49.11995 8.24007 10707 ft 292 kts 123°
2026-05-04 17:50 49.11002 8.26703 10465 ft 290 kts 123°
2026-05-04 17:50 49.10014 8.29383 10222 ft 289 kts 123°
2026-05-04 17:51 49.09035 8.32047 9989 ft 287 kts 122°
2026-05-04 17:51 49.08063 8.34694 9839 ft 286 kts 123°
2026-05-04 17:51 49.07092 8.37332 9681 ft 286 kts 122°
2026-05-04 17:51 49.06119 8.39972 9552 ft 284 kts 122°
2026-05-04 17:52 49.05153 8.42590 9146 ft 282 kts 122°
2026-05-04 17:52 49.04189 8.45205 8977 ft 279 kts 122°
2026-05-04 17:52 49.03231 8.47791 8988 ft 281 kts 122°
2026-05-04 17:52 49.02267 8.50391 8988 ft 282 kts 122°
2026-05-04 17:53 49.01304 8.52987 8990 ft 282 kts 122°
2026-05-04 17:53 49.00326 8.55582 8988 ft 281 kts 125°
2026-05-04 17:53 48.99159 8.57948 8989 ft 279 kts 134°
2026-05-04 17:53 48.97774 8.59984 8818 ft 275 kts 143°
2026-05-04 17:54 48.96227 8.61673 8418 ft 273 kts 148°
2026-05-04 17:54 48.94660 8.63301 8046 ft 272 kts 148°
2026-05-04 17:54 48.93098 8.64927 7677 ft 271 kts 147°
2026-05-04 17:54 48.91543 8.66549 7336 ft 270 kts 147°
2026-05-04 17:55 48.89999 8.68160 7029 ft 267 kts 147°
2026-05-04 17:55 48.88460 8.69767 6990 ft 270 kts 147°
2026-05-04 17:55 48.86912 8.71385 6980 ft 271 kts 147°
2026-05-04 17:55 48.85359 8.73010 6944 ft 270 kts 147°
2026-05-04 17:56 48.83806 8.74634 6988 ft 272 kts 147°
2026-05-04 17:56 48.82243 8.76264 6991 ft 272 kts 147°
2026-05-04 17:56 48.80685 8.77889 6980 ft 271 kts 147°
2026-05-04 17:56 48.79143 8.79499 6646 ft 268 kts 147°
2026-05-04 17:57 48.77607 8.81099 6257 ft 268 kts 147°
2026-05-04 17:57 48.76075 8.82695 5874 ft 267 kts 146°
2026-05-04 17:57 48.74546 8.84284 5488 ft 266 kts 147°
2026-05-04 17:57 48.73022 8.85865 5085 ft 265 kts 146°
2026-05-04 17:58 48.72011 8.86910 4994 ft 257 kts 146°
2026-05-04 17:58 48.70564 8.88408 4878 ft 246 kts 146°
2026-05-04 17:58 48.69182 8.89839 4707 ft 237 kts 145°
2026-05-04 17:58 48.67826 8.91243 4375 ft 235 kts 145°
2026-05-04 17:59 48.66483 8.92636 4034 ft 234 kts 143°
2026-05-04 17:59 48.65345 8.94408 4023 ft 237 kts 122°
2026-05-04 17:59 48.64600 8.98800 4006 ft 201 kts 83°
2026-05-04 18:00 48.64899 9.00824 3889 ft 195 kts 72°
2026-05-04 18:00 48.65275 9.02769 3660 ft 191 kts 71°
2026-05-04 18:00 48.65640 9.04666 3422 ft 183 kts 71°
2026-05-04 18:00 48.65982 9.06453 3194 ft 171 kts 71°
2026-05-04 18:01 48.66302 9.08123 2964 ft 161 kts 70°
2026-05-04 18:01 48.66612 9.09741 2767 ft 159 kts 70°
2026-05-04 18:01 48.66913 9.11314 2547 ft 153 kts 69°
2026-05-04 18:02 48.67500 9.14387 2150 ft 152 kts 70°
2026-05-04 18:02 48.67794 9.15924 1928 ft 153 kts 70°
2026-05-04 18:02 48.68090 9.17471 1716 ft 153 kts 70°
2026-05-04 18:02 48.68386 9.19047 1498 ft 154 kts 71°
2026-05-04 18:03 48.68683 9.20600 1298 ft 149 kts 70°
2026-05-04 18:03 48.68942 9.21949 1247 ft 111 kts 73°
2026-05-04 18:03 48.69081 9.22687 1228 ft 41 kts 72°
2026-05-04 18:03 48.69198 9.22999 1224 ft 28 kts 48°
2026-05-04 18:04 48.69269 9.23107 1220 ft 0 kts 42°
2026-05-04 18:04 48.69276 9.23117 1220 ft 5 kts 41°
2026-05-04 18:05 48.69333 9.23166 1219 ft 12 kts
2026-05-04 18:05 48.69396 9.23117 1220 ft 10 kts 306°
2026-05-04 18:05 48.69404 9.23018 1222 ft 10 kts 254°
2026-05-04 18:05 48.69384 9.22917 1224 ft 10 kts 253°
2026-05-04 18:06 48.69343 9.22700 1226 ft 12 kts 254°
2026-05-04 18:06 48.69319 9.22569 1227 ft 14 kts 255°
2026-05-04 18:06 48.69295 9.22433 1230 ft 13 kts 254°
2026-05-04 18:07 48.69267 9.22298 1232 ft 14 kts 252°
2026-05-04 18:07 48.69237 9.22150 1243 ft 15 kts 254°
2026-05-04 18:07 48.69211 9.22004 1238 ft 14 kts 255°
2026-05-04 18:07 48.69188 9.21871 1247 ft 13 kts 256°
2026-05-04 18:08 48.69165 9.21754 1247 ft 11 kts 251°
2026-05-04 18:08 48.69144 9.21654 1251 ft 11 kts 254°
2026-05-04 18:08 48.69123 9.21536 1254 ft 14 kts 255°
2026-05-04 18:08 48.69092 9.21374 1263 ft 16 kts 253°
2026-05-04 18:09 48.69041 9.21102 1268 ft 10 kts 254°
2026-05-04 18:09 48.68996 9.20867 1270 ft 18 kts 253°
2026-05-04 18:10 48.68950 9.20625 1271 ft 27 kts 255°
2026-05-04 18:10 48.68905 9.20388 1279 ft 22 kts 252°
2026-05-04 18:10 48.68865 9.20174 1284 ft 21 kts 253°
2026-05-04 18:10 48.68820 9.19998 1288 ft 17 kts 228°
2026-05-04 18:11 48.68749 9.19964 1285 ft 11 kts 185°
2026-05-04 18:11 48.68714 9.19975 1287 ft 7 kts 165°
2026-05-04 18:11 48.68651 9.20001 1287 ft 12 kts 165°
2026-05-04 18:11 48.68527 9.20051 1290 ft 21 kts 158°
2026-05-04 18:12 48.68473 9.20074 1287 ft 6 kts 165°
2026-05-04 18:12 48.68377 9.20113 1286 ft 9 kts 177°
2026-05-04 18:12 48.68327 9.20047 1286 ft 10 kts 254°
2026-05-04 18:12 48.68310 9.19967 1289 ft 1 kts 239°
2026-05-04 18:13 48.68302 9.19972 1289 ft 4 kts 160°
2026-05-04 18:13 48.68255 9.20021 1287 ft 0 kts 162°
2026-05-04 18:13 48.68254 9.20022 1287 ft 0 kts 162°